EW7541 Weather Reports


Display with metric or nautical units.
time (UTC)temp
F
wind
direction
speed
MPH
gust
MPH
rain 1hr
in
rain 24hr
in
rain mn
in
humidity
%
barometer
mb
20260506033019 65 0.0 0.0 0.00 0.00 0.00 53 1006.3
20260506032020 65 0.0 0.0 0.00 0.00 0.00 54 1006.2
20260506031019 65 0.0 0.0 0.00 0.00 0.00 54 1006.3
20260506030039 65 0.0 0.0 0.00 0.00 0.00 54 1006.1
20260506025019 65 0.0 0.0 0.00 0.00 0.00 54 1006.3
20260506024020 65 0.0 0.0 0.00 0.00 0.00 54 1006.1
20260506023019 65 0.0 0.0 0.00 0.00 0.00 54 1005.8
20260506022019 65 0.0 0.0 0.00 0.00 0.00 54 1005.9
20260506021019 65 0.0 0.0 0.00 0.00 0.00 54 1005.8
20260506020019 65 0.0 0.0 0.00 0.00 0.00 54 1005.7
20260506015019 65 0.0 0.0 0.00 0.00 0.00 54 1005.5
20260506014019 65 0.0 0.0 0.00 0.00 0.00 54 1005.4
20260506013039 65 0.0 4.0 0.00 0.00 0.00 54 1005.1
20260506012019 65 0.0 0.0 0.00 0.00 0.00 54 1005.1
20260506011019 65 0.0 0.0 0.00 0.00 0.00 54 1004.8
20260506010019 65 0.0 0.0 0.00 0.00 0.00 54 1004.9
20260506005019 65 0.0 0.0 0.00 0.00 0.00 54 1004.8
20260506004019 65 0.0 0.0 0.00 0.00 0.00 53 1004.8
20260506003039 65 0.0 0.0 0.00 0.00 0.00 53 1004.8
20260506002019 66 0.0 0.0 0.00 0.00 0.00 52 1004.6
20260506001019 66 0.0 0.0 0.00 0.00 0.00 52 1004.5
20260506000019 66 0.0 0.0 0.00 0.00 0.00 52 1004.6
20260505235019 66 0.0 0.0 0.00 0.00 0.00 52 1004.7
20260505234019 66 0.0 0.0 0.00 0.00 0.00 51 1004.7
20260505233019 66 0.0 0.0 0.00 0.00 0.00 51 1004.6
20260505232019 67 0.0 1.0 0.00 0.00 0.00 51 1004.5
20260505231039 67 0.0 1.0 0.00 0.00 0.00 51 1004.7
20260505230019 67 0.0 0.0 0.00 0.00 0.00 52 1004.7
20260505225019 67 0.0 0.0 0.00 0.00 0.00 51 1004.6
20260505224019 68 0.0 0.0 0.00 0.00 0.00 50 1004.9
20260505223039 68 0.0 0.0 0.00 0.00 0.00 50 1005.0
20260505222019 68 0.0 0.0 0.00 0.00 0.00 49 1005.1
20260505221019 69 0.0 0.0 0.00 0.00 0.00 48 1005.1
20260505220018 68 0.0 0.0 0.00 0.00 0.00 47 1005.1
20260505215018 68 0.0 0.0 0.00 0.00 0.00 46 1004.7
20260505214019 69 0.0 0.0 0.00 0.00 0.00 46 1004.8
20260505213039 69 0.0 0.0 0.00 0.00 0.00 46 1005.0
20260505212019 69 0.0 0.0 0.00 0.00 0.00 45 1005.1
20260505211019 69 0.0 1.0 0.00 0.00 0.00 47 1005.1
20260505210019 69 0.0 5.0 0.00 0.00 0.00 44 1005.1
20260505205019 69 0.0 5.0 0.00 0.00 0.00 44 1005.2
20260505204019 68 0.0 8.0 0.00 0.00 0.00 44 1005.1
20260505203019 69 113 1.0 6.0 0.00 0.00 0.00 44 1005.2
20260505202039 70 0.0 0.0 0.00 0.00 0.00 46 1005.0
20260505201018 70 0.0 1.0 0.00 0.00 0.00 44 1005.3
20260505200018 70 0.0 1.0 0.00 0.00 0.00 46 1005.5
20260505195019 70 0.0 1.0 0.00 0.00 0.00 45 1005.7
20260505194019 71 0.0 1.0 0.00 0.00 0.00 45 1006.0
20260505193018 71 0.0 0.0 0.00 0.00 0.00 46 1006.1
20260505192018 71 0.0 4.0 0.00 0.00 0.00 48 1006.1
20260505191019 71 0.0 0.0 0.00 0.00 0.00 45 1006.3
20260505190038 71 0.0 0.0 0.00 0.00 0.00 46 1006.3
20260505185018 70 0.0 0.0 0.00 0.00 0.00 43 1006.3
20260505184018 71 0.0 1.0 0.00 0.00 0.00 43 1006.5
20260505183019 71 0.0 1.0 0.00 0.00 0.00 47 1006.4
20260505182019 70 0.0 2.0 0.00 0.00 0.00 49 1006.5
20260505181018 70 0.0 2.0 0.00 0.00 0.00 48 1006.8
20260505180019 70 0.0 0.0 0.00 0.00 0.00 47 1006.9
20260505175038 69 0.0 2.0 0.00 0.00 0.00 52 1006.9
20260505174018 69 0.0 2.0 0.00 0.00 0.00 50 1007.2
20260505173038 68 0.0 0.0 0.00 0.00 0.00 50 1007.2
20260505172019 69 0.0 0.0 0.00 0.00 0.00 50 1007.4
20260505171020 69 0.0 0.0 0.00 0.00 0.00 50 1007.6
20260505170018 70 0.0 0.0 0.00 0.00 0.00 49 1007.7
20260505165018 69 0.0 2.0 0.00 0.00 0.00 48 1007.6
20260505164018 69 0.0 0.0 0.00 0.00 0.00 46 1007.5
20260505163020 69 0.0 5.0 0.00 0.00 0.00 47 1007.6
20260505162038 70 0.0 0.0 0.00 0.00 0.00 45 1007.7
20260505161018 69 0.0 3.0 0.00 0.00 0.00 47 1007.7
20260505153020 66 113 2.0 8.0 0.00 0.00 0.00 53 1007.7
20260505152018 67 113 1.0 6.0 0.00 0.00 0.00 56 1007.9
20260505151018 66 113 3.0 7.0 0.00 0.00 0.00 57 1008.0
20260505125020 59 0.0 0.0 0.00 0.00 0.00 67 1006.6
20260505124041 59 0.0 0.0 0.00 0.00 0.00 69 1006.6
20260505123020 59 0.0 0.0 0.00 0.00 0.00 69 1006.7
20260505122040 58 0.0 0.0 0.00 0.00 0.00 68 1006.6
20260505121020 58 0.0 2.0 0.00 0.00 0.00 68 1006.3
20260505120020 57 0.0 1.0 0.00 0.00 0.00 68 1006.6
20260505115020 57 0.0 2.0 0.00 0.00 0.00 67 1006.5
20260505114020 57 0.0 2.0 0.00 0.00 0.00 66 1006.3
20260505113019 57 0.0 1.0 0.00 0.00 0.00 64 1006.3
20260505112020 56 0.0 0.0 0.00 0.00 0.00 63 1006.0
20260505111020 56 0.0 0.0 0.00 0.00 0.00 62 1005.8
20260505102020 56 0.0 2.0 0.00 0.00 0.00 61 1005.8
20260505101020 56 0.0 2.0 0.00 0.00 0.00 60 1006.0
20260505100039 56 45 1.0 3.0 0.00 0.00 0.00 60 1006.3
20260505095019 56 0.0 2.0 0.00 0.00 0.00 59 1006.2
20260505094020 57 45 1.0 7.0 0.00 0.00 0.00 58 1006.2
20260505093020 56 45 1.0 3.0 0.00 0.00 0.00 58 1006.2
20260505092020 57 0.0 1.0 0.00 0.00 0.00 58 1006.5
20260505091059 57 0.0 0.0 0.00 0.00 0.00 57 1006.5
20260505090019 57 0.0 2.0 0.00 0.00 0.00 57 1006.6
20260505085020 57 0.0 2.0 0.00 0.00 0.00 57 1006.6
20260505084039 57 0.0 0.0 0.00 0.00 0.00 57 1006.7
20260505083019 57 0.0 1.0 0.00 0.00 0.00 57 1006.6
20260505082019 57 0.0 0.0 0.00 0.00 0.00 58 1006.8
20260505081019 57 0.0 1.0 0.00 0.00 0.00 59 1006.6
20260505080019 57 0.0 0.0 0.00 0.00 0.00 59 1006.7
20260505075019 58 0.0 0.0 0.00 0.00 0.00 57 1006.9
20260505074019 59 0.0 1.0 0.00 0.00 0.00 56 1006.9
20260505073020 59 0.0 2.0 0.00 0.00 0.00 55 1006.9
20260505072019 58 0.0 0.0 0.00 0.00 0.00 56 1007.0
20260505071019 58 0.0 0.0 0.00 0.00 0.00 56 1006.9
20260505070019 58 0.0 2.0 0.00 0.00 0.00 57 1006.9
20260505065020 58 0.0 1.0 0.00 0.00 0.00 57 1006.9
20260505064039 59 0.0 0.0 0.00 0.00 0.00 56 1006.9
20260505063019 59 0.0 1.0 0.00 0.00 0.00 57 1006.9
20260505062039 58 0.0 0.0 0.00 0.00 0.00 57 1007.0
20260505061042 58 0.0 3.0 0.00 0.00 0.00 57 1007.1
20260505060019 58 0.0 2.0 0.00 0.00 0.00 56 1007.0
20260505055019 58 0.0 1.0 0.00 0.00 0.00 56 1007.1
20260505054019 58 0.0 2.0 0.00 0.00 0.00 56 1007.2
20260505053019 58 0.0 0.0 0.00 0.00 0.00 56 1007.2
20260505052059 59 0.0 0.0 0.00 0.00 0.00 56 1007.2
20260505051019 59 0.0 5.0 0.00 0.00 0.00 55 1007.2
20260505041020 60 0.0 1.0 0.00 0.00 0.00 53 1006.8
20260505040019 60 0.0 0.0 0.00 0.00 0.00 53 1006.8
20260505035040 61 0.0 2.0 0.00 0.00 0.00 52 1007.0
20260505034019 61 0.0 2.0 0.00 0.00 0.00 51 1007.1